Flag Weather past 2 weeks in Dublin, Ireland

Now
55 °F

Light rain. Partly cloudy.


Feels Like: 52 °F
Forecast: N/A
Wind: 15 mph from West

Location: Dublin Airport

Current Time: Oct 31, 2014 at 7:24:47 PM

Latest Report: Oct 31, 2014 at 7:00 PM


Visibility: N/A

Pressure: 29.68 "Hg

Humidity: 94%

Dew point: 54 °F

Location of DublinLocation

Historic Weather in Dublin — Graph

°F

Dublin temperature yesterday

Maximum temperature yesterday: 63 °F (at 11:00 AM)
Minimum temperature yesterday: 54 °F (at 4:30 AM)
Average temperature yesterday: 59 °F

Past Weeks' High & Low Weather Summary

 TemperatureHumidityPressure
High66 °F (Oct 31, 1:00 PM)100% (Oct 17, 5:00 AM)30.24 "Hg (Oct 17, 5:00 AM)
Low32 °F (Oct 29, 3:30 AM)50% (Oct 21, 4:30 PM)29.36 "Hg (Oct 17, 9:30 PM)
Average55 °F82%29.79 "Hg
* Reported Oct 16 7:00 PM — Oct 31 6:00 PM, Dublin, Weather by CustomWeather, © 2014

Note: Actual official high and low records may vary slightly from our data, if they occured in-between our weather recording intervals... More about our weather records

Advertising

Dublin weather history for previous 24 hours

 ConditionsComfort  
Time TempWeatherWind HumidityBarometerVisibility
6:00 PM
Oct 31
57 °FPartly cloudy.13 mph94%29.65 "HgN/A
5:30 PM59 °FLight rain. Partly cloudy.13 mph94%29.65 "Hg6 mi
5:00 PM61 °FLight rain. Partly cloudy.14 mph88%29.65 "Hg4 mi
4:30 PM63 °FLight rain. Broken clouds.15 mph77%29.62 "HgN/A
4:00 PM64 °FBroken clouds.17 mph68%29.62 "HgN/A
3:30 PM64 °FBroken clouds.18 mph73%29.62 "HgN/A
3:00 PM63 °FBroken clouds.17 mph83%29.65 "HgN/A
2:30 PM63 °FBroken clouds.17 mph77%29.65 "HgN/A
2:00 PM64 °FBroken clouds.18 mph73%29.65 "HgN/A
1:30 PM64 °FBroken clouds.21 mph68%29.65 "HgN/A
1:00 PM66 °FPartly sunny.21 mph64%29.65 "HgN/A
12:30 PM64 °FScattered clouds.16 mph73%29.68 "HgN/A
12:00 PM64 °FBroken clouds.24 mph73%29.68 "HgN/A
11:30 AM64 °FBroken clouds.17 mph73%29.68 "HgN/A
11:00 AM64 °FBroken clouds.20 mph73%29.68 "HgN/A
10:30 AM64 °FBroken clouds.21 mph73%29.68 "HgN/A
10:00 AM64 °FBroken clouds.22 mph73%29.71 "HgN/A
9:30 AM63 °FBroken clouds.20 mph77%29.71 "HgN/A
9:00 AM63 °FBroken clouds.15 mph73%29.71 "HgN/A
8:30 AM63 °FBroken clouds.12 mph73%29.71 "HgN/A
8:00 AM63 °FBroken clouds.10 mph73%29.71 "HgN/A
7:30 AM63 °FBroken clouds.12 mph73%29.71 "HgN/A
7:00 AM63 °FPassing clouds.12 mph73%29.71 "HgN/A
6:30 AM63 °FPartly cloudy.10 mph73%29.71 "HgN/A
6:00 AM61 °FPartly cloudy.12 mph77%29.71 "HgN/A
5:30 AM61 °FPartly cloudy.10 mph77%29.74 "HgN/A
5:00 AM63 °FPartly cloudy.8 mph77%29.74 "HgN/A
4:30 AM61 °FPartly cloudy.13 mph83%29.74 "HgN/A
4:00 AM61 °FPartly cloudy.13 mph83%29.74 "HgN/A
3:30 AM61 °FPartly cloudy.12 mph83%29.74 "HgN/A
3:00 AM61 °FPartly cloudy.14 mph83%29.77 "HgN/A
2:30 AM61 °FPartly cloudy.15 mph83%29.77 "HgN/A
2:00 AM61 °FPassing clouds.17 mph83%29.77 "HgN/A
1:30 AM61 °FPassing clouds.15 mph83%29.77 "HgN/A
1:00 AM61 °FPassing clouds.15 mph83%29.77 "HgN/A
12:30 AM61 °FPassing clouds.14 mph83%29.80 "HgN/A
12:00 AM61 °FPassing clouds.9 mph77%29.80 "HgN/A
11:30 PM
Oct 30
61 °FPartly cloudy.10 mph77%29.80 "HgN/A
11:00 PM61 °FPartly cloudy.8 mph77%29.80 "HgN/A
10:30 PM61 °FPartly cloudy.9 mph77%29.80 "HgN/A
10:00 PM61 °FPartly cloudy.10 mph77%29.80 "HgN/A
9:30 PM61 °FPartly cloudy.17 mph77%29.83 "HgN/A
9:00 PM61 °FPartly cloudy.14 mph77%29.83 "HgN/A
8:30 PM59 °FPartly cloudy.13 mph82%29.83 "HgN/A
8:00 PM59 °FPartly cloudy.13 mph82%29.83 "HgN/A
7:30 PM61 °FPassing clouds.8 mph77%29.83 "HgN/A
7:00 PM61 °FPassing clouds.10 mph77%29.83 "HgN/A
Weather by CustomWeather, © 2014

See weather overviewHow to use our weather pages